Northfield, Minnesota, United States (55057)
Lat: 44.46N, Lon: 93.16W
Wx Zone: MNZ077
Local Info
Past Weather Observations for Today

NOTE: This archive is for the closest National Weather Service station to Northfield. Information may differ from the station used for current weather conditions.

Click here for Long-term Archive

Time Weather Temperature Dewpoint Humidity Pressure Winds Precip Visibility
07:11
Mostly Cloudy
66°F / 19°C 63°F / 17°C 88% 29.65 in
(1004 mb)
SSE 3.5 mph
(SSE 6 kph)
- 10SM
06:51
Overcast
66°F / 19°C 63°F / 17°C 88% 29.65 in
(1004 mb)
SW 3.5 mph
(SW 6 kph)
- 10SM
06:30
Overcast
66°F / 19°C 63°F / 17°C 88% 29.65 in
(1004 mb)
SSE 3.5 mph
(SSE 6 kph)
- 10SM
06:11
Overcast
66°F / 19°C 63°F / 17°C 88% 29.65 in
(1004 mb)
Calm - 10SM
05:51
Overcast
Thunder Storms
66°F / 19°C 63°F / 17°C 88% 29.65 in
(1004 mb)
SSW 3.5 mph
(SSW 6 kph)
- 10SM
05:31
Overcast
66°F / 19°C 63°F / 17°C 88% 29.65 in
(1004 mb)
SSW 5.8 mph
(SSW 9 kph)
- 10SM
05:10
Overcast
Fog And Mist
66°F / 19°C 63°F / 17°C 88% 29.62 in
(1003 mb)
SSW 8.1 mph
(SSW 13 kph)
- 4SM
04:51
Overcast
Fog And Mist
66°F / 19°C 63°F / 17°C 88% 29.62 in
(1003 mb)
SSW 8.1 mph
(SSW 13 kph)
- 4SM
04:31
Overcast
66°F / 19°C 63°F / 17°C 88% 29.65 in
(1004 mb)
SSW 9.2 mph
(SSW 15 kph)
- 10SM
04:10
Overcast
66°F / 19°C 63°F / 17°C 88% 29.65 in
(1004 mb)
SW 9.2 mph
(SW 15 kph)
- 10SM
03:51
Overcast
66°F / 19°C 63°F / 17°C 88% 29.62 in
(1003 mb)
SW 8.1 mph
(SW 13 kph)
- 10SM
03:31
Overcast
66°F / 19°C 63°F / 17°C 88% 29.65 in
(1004 mb)
SSE 6.9 mph
(SSE 11 kph)
- 10SM
03:10
Overcast
66°F / 19°C 63°F / 17°C 88% 29.65 in
(1004 mb)
SW 6.9 mph
(SW 11 kph)
- 10SM
02:51
Overcast
Rain
66°F / 19°C 63°F / 17°C 88% 29.65 in
(1004 mb)
S 3.5 mph
(S 6 kph)
- 10SM
02:31
Overcast
66°F / 19°C 63°F / 17°C 88% 29.65 in
(1004 mb)
S 6.9 mph
(S 11 kph)
- 10SM
02:10
Overcast
Drizzle
66°F / 19°C 63°F / 17°C 88% 29.65 in
(1004 mb)
S 5.8 mph
(S 9 kph)
- 10SM
01:51
Overcast
66°F / 19°C 63°F / 17°C 88% 29.65 in
(1004 mb)
S 5.8 mph
(S 9 kph)
- 10SM
01:31
Overcast
66°F / 19°C 63°F / 17°C 88% 29.65 in
(1004 mb)
S 4.6 mph
(S 7 kph)
- 10SM
01:10
Mostly Cloudy
66°F / 19°C 63°F / 17°C 88% 29.65 in
(1004 mb)
Calm - 10SM
00:51
Mostly Cloudy
66°F / 19°C 63°F / 17°C 88% 29.65 in
(1004 mb)
Calm - 10SM
00:31
Overcast
66°F / 19°C 63°F / 17°C 88% 29.65 in
(1004 mb)
SW 4.6 mph
(SW 7 kph)
- 10SM
00:10
Overcast
66°F / 19°C 64°F / 18°C 94% 29.68 in
(1005 mb)
SW 8.1 mph
(SW 13 kph)
- 10SM
Time Weather Temperature Dewpoint Humidity Pressure Winds Precip Visibility


Weather for websites

WeatherForYou.com, LLC is not responsible for any damages or problems caused by this service. Current weather conditions are obtained from the closest station including government and personal stations which may have varying degrees of accuracy. Weather forecasts are derived from the NOAA NDFD. Like all things, this site belongs to Jesus Christ... He just trusts me to maintain it. If you have any questions or comments email webmaster@weatherforyou.com

Copyright © 2014, WeatherForYou.com LLC. All rights reserved.